"Pseudo-MPEC" for P10Ojx9

Created 2019 Jun 15 19:09:11 UT using Find_Orb

Click here for an explanation of pseudo-MPECs

 
 Astrometry: 
     P10Ojx9  C2019 05 297[.O$JH7[+d8s6OPiu)d'=P1xvF7iry'Sa0212IF=3_kIhAldJ1kF51
     P10Ojx9  C2019 05 29AaW?^#W'O0b)qs;]_)#QBnT1i!Om2@4Mw.eUem*O/g\\]BAE+=m`F51
     P10Ojx9  C2019 05 29(\;WOMR=)Kf^j3isB0t%m1GGRFSJ99ROT0$[bu5k!!*EhM?1]9j*F51
     P10Ojx9 |C2019 06 02JkRW7_'Px3%,w]A92V_32iYpxeSk/8;DL7)-A[AA7b2Jq]*:p_0H807
     P10Ojx9 |C2019 06 02$=94UUhy'\5!=0^(mF:=?1U#KKb5tgS3UbBC$#AstrometryxmYW807
     P10Ojx9 |C2019 06 02[T_NUFNe!Qkn53hjPdglhkD5J:l_o,gJ,3xKh)powQI2d7:j`D5+807
     P10Ojx9 |C2019 06 0349EZxnf?LSpxunjQy:dd+@Xads`S$tl#TDrAdjmqaEl;n7FmQ016807
     P10Ojx9 |C2019 06 03+DxI=^WA2Ixfnpa2a/)TO=fcpqN'.3K`6BDm=0qve28Qs!ZO//F2807
     P10Ojx9 |C2019 06 03v0\m8cU%i;oe9c)IZEyW8*+9dZM'4Ikpq]4WB1B[NK_bp_;(QEgD807
     P10Ojx9  C2019 06 03/!F]([`M+1d?8P4lsI@x.)IGDQxjrBSsijV$+]/HO.(%vtRFoQ.x691
     P10Ojx9  C2019 06 03TVv_T@WQNP@`DID-@F\(N%#H%rSgJ-CFlRAI)oT#g:!k^.e*Em3;691
     P10Ojx9  C2019 06 03L6cQ.=?Xredacted;$XqnStQHNTjC/[[F@cmSX@CAqQ86cq-uh!O691
     P10Ojx9 KC2019 06 09-QkaAhqVIii,pBd6e_apxR3o_c7`8SmCx/efZA6#xY/ns^AXEl0w691
     P10Ojx9 KC2019 06 09YY6Bpw4$DX-wiAYDp8-nj9\#So]j8SA1?click^4'[WHT6GJ(TCw691
     P10Ojx9 KC2019 06 095EAN!WQULhyvtE-9]AtsRw'BDQKRNgtCoO!^Li]Ee1js%MnyGv'i691
     P10Ojx9  C2019 06 09@3nsap:[90em1Ita?@r/9w6-Q7.MxHQlu9=5N0y9$d=xe$=_Px(_F51
     P10Ojx9  C2019 06 09Y-n,LF.Wl)J/sy@rlx7cvgm;rM9iRYQF?#lN491_H^^Bhere1*@HF51
     P10Ojx9  C2019 06 09npJ5=?-jXa40te1:BWBVpS;s8S;I86q`,uu$:]nLx\6sGG3CY/ObF51
     P10Ojx9  C2019 06 09oHT#dWoT(U:W*KggQfIh9KiLnH[HRwr,u=jryg1)+]KLhkv0*!0oF51
     P10Ojx9  C2019 06 11ErTvj/(?M/bgekLHpykaO!EPUUyXKfw;uYZ#YCW3+xyQJ!G#forlF51
     P10Ojx9  C2019 06 11c,H.6#d65a;Wwu7.5Wv@UuKZPM7w6DyxZJ8[f:vCkK4l4I#0j3_oF51
     P10Ojx9  C2019 06 11GiB^f2explanation(e1=BMgZbSN_v?d1eRZCb$V!NWkp;1]xQn;F51
     P10Ojx9  C2019 06 11su(-^65w2.;wtn2=0jM2*W5yhrQ?@lloOSSeh*QwF)Kn;B$_oj$SF51

Station data:
(691) Steward Observatory, Kitt Peak - Spacewatch  (N31.962174 W111.600327)
   US/Arizona.  Observer J. V. Scotti. 0.9-m f/3 reflector + CCD.
(807) Cerro Tololo Observatory, La Serena  (S30.169136 W70.805900)  Chile.
(F51) Pan-STARRS 1, Haleakala  (N20.707235 W156.255910)  US/Hawaii.
   Observers N. Primak, A. Schultz, S. Watters, J. Thiel, T. Goggia. Measurer
   PS1 Science Consortium. 1.8-m Ritchey-Chrétien + CCD.

Orbital elements:  P10Ojx9
   Perihelion 2024 Nov 21.104463 +/- 1786 TT =  2:30:25 (JD 2460635.604463)
Epoch 2019 Jun 11.0 TT = JDT 2458645.5   Ju: 0.0173           AutoNEOCP
M 194.56282036 +/- 140              (J2000 ecliptic)
n   0.08312989 +/- 0.000563         Peri.  199.90204 +/- 24
a   5.19953556 +/- 0.0234           Node   278.33057 +/- 0.07
e   0.0109955 +/- 0.0106            Incl.   28.50574 +/- 0.051
P  11.86                   H 14.2   G  0.15   U  8.1  
q 5.14236388 +/- 0.0756    Q 5.25670724 +/- 0.0366
From 23 observations 2019 May 29-June 11; mean residual 0".21
Residuals in arcseconds: 
190529 F51  .00   .03+    190603 807  .13+  .29-    190609 F51  .07+  .14-    
190529 F51  .07+  .22+    190603 691  .11-  .07-    190609 F51  .08-  .07-    
190529 F51  .13-  .05-    190603 691  .07-  .33+    190609 F51  .14+  .10-    
190602 807  .12+  .08-    190603 691  .11+  .44+    190611 F51  .02+  .06-    
190602 807  .07-  .29-    190609 691  .03+  .08-    190611 F51  .17+  .01+    
190602 807  .06+  .28-    190609 691  .11-  .94+    190611 F51  .00   .21-    
190603 807  .03+  .11-    190609 691  .24-  .06+    190611 F51  .04-  .08-    
190603 807  .01-  .25-    190609 F51  .00   .26-    

Ephemerides (geocentric):
Date (UTC) HH   RA              Dec         delta   r     elong  mag " sig PA
---- -- -- --  -------------   -----------  ------ ------ -----  --- ---- ---
2019 06 15 19  21 03 33.457   +01 54 11.72  4.6286 5.2548 123.3 21.7 .545  77
2019 06 15 20  21 03 32.864   +01 54 22.48  4.6281 5.2548 123.3 21.7 .551  77
2019 06 15 21  21 03 32.271   +01 54 33.24  4.6276 5.2548 123.3 21.7 .556  77
2019 06 15 22  21 03 31.676   +01 54 43.99  4.6271 5.2548 123.4 21.7 .562  77
2019 06 15 23  21 03 31.079   +01 54 54.73  4.6266 5.2548 123.4 21.7 .567  77
2019 06 16 00  21 03 30.482   +01 55 05.46  4.6261 5.2548 123.5 21.7 .573  77
2019 06 16 01  21 03 29.883   +01 55 16.19  4.6256 5.2548 123.5 21.7 .578  77
2019 06 16 02  21 03 29.284   +01 55 26.91  4.6251 5.2548 123.5 21.7 .584  77
2019 06 16 03  21 03 28.683   +01 55 37.62  4.6246 5.2548 123.6 21.7 .589  77
2019 06 16 04  21 03 28.080   +01 55 48.33  4.6241 5.2548 123.6 21.7 .595  77
2019 06 16 05  21 03 27.477   +01 55 59.02  4.6236 5.2548 123.6 21.7 .601  77
2019 06 16 06  21 03 26.872   +01 56 09.72  4.6231 5.2548 123.7 21.7 .607  77
2019 06 16 07  21 03 26.267   +01 56 20.40  4.6226 5.2548 123.7 21.7 .612  77
2019 06 16 08  21 03 25.660   +01 56 31.08  4.6221 5.2548 123.8 21.7 .618  77
2019 06 16 09  21 03 25.052   +01 56 41.75  4.6216 5.2548 123.8 21.7 .624  77
2019 06 16 10  21 03 24.442   +01 56 52.42  4.6211 5.2548 123.8 21.7 .630  77
2019 06 16 11  21 03 23.832   +01 57 03.08  4.6206 5.2548 123.9 21.7 .635  77
2019 06 16 12  21 03 23.220   +01 57 13.73  4.6201 5.2548 123.9 21.7 .641  77
2019 06 16 13  21 03 22.608   +01 57 24.38  4.6196 5.2548 123.9 21.7 .647  77
2019 06 16 14  21 03 21.993   +01 57 35.01  4.6191 5.2548 124.0 21.7 .653  77
2019 06 16 15  21 03 21.378   +01 57 45.64  4.6186 5.2548 124.0 21.7 .659  77
2019 06 16 16  21 03 20.762   +01 57 56.27  4.6181 5.2548 124.1 21.7 .665  77
2019 06 16 17  21 03 20.144   +01 58 06.89  4.6176 5.2548 124.1 21.7 .671  77
2019 06 16 18  21 03 19.526   +01 58 17.50  4.6171 5.2548 124.1 21.7 .677  77
2019 06 16 19  21 03 18.906   +01 58 28.10  4.6166 5.2548 124.2 21.7 .683  77
2019 06 16 20  21 03 18.285   +01 58 38.70  4.6161 5.2548 124.2 21.7 .689  77
2019 06 16 21  21 03 17.662   +01 58 49.29  4.6156 5.2548 124.2 21.7 .695  77
2019 06 16 22  21 03 17.039   +01 58 59.87  4.6152 5.2548 124.3 21.7 .701  77
2019 06 16 23  21 03 16.414   +01 59 10.45  4.6147 5.2548 124.3 21.7 .707  77
2019 06 17 00  21 03 15.788   +01 59 21.02  4.6142 5.2548 124.4 21.7 .713  77
2019 06 17 01  21 03 15.161   +01 59 31.58  4.6137 5.2548 124.4 21.7 .719  77
2019 06 17 02  21 03 14.533   +01 59 42.13  4.6132 5.2548 124.4 21.7 .726  77
2019 06 17 03  21 03 13.904   +01 59 52.68  4.6127 5.2548 124.5 21.7 .732  77
2019 06 17 04  21 03 13.273   +02 00 03.22  4.6122 5.2548 124.5 21.7 .738  77
2019 06 17 05  21 03 12.641   +02 00 13.76  4.6117 5.2548 124.5 21.7 .744  77
2019 06 17 06  21 03 12.008   +02 00 24.29  4.6112 5.2548 124.6 21.7 .750  77
2019 06 17 07  21 03 11.374   +02 00 34.81  4.6107 5.2548 124.6 21.7 .757  77
2019 06 17 08  21 03 10.739   +02 00 45.32  4.6102 5.2548 124.7 21.7 .763  77
2019 06 17 09  21 03 10.103   +02 00 55.83  4.6097 5.2548 124.7 21.7 .769  77
2019 06 17 10  21 03 09.465   +02 01 06.33  4.6092 5.2548 124.7 21.7 .776  77
2019 06 17 11  21 03 08.826   +02 01 16.82  4.6088 5.2548 124.8 21.7 .782  77
2019 06 17 12  21 03 08.186   +02 01 27.31  4.6083 5.2548 124.8 21.7 .789  77
2019 06 17 13  21 03 07.545   +02 01 37.79  4.6078 5.2548 124.8 21.7 .795  77
2019 06 17 14  21 03 06.903   +02 01 48.26  4.6073 5.2548 124.9 21.7 .801  77
2019 06 17 15  21 03 06.259   +02 01 58.73  4.6068 5.2548 124.9 21.7 .808  77
2019 06 17 16  21 03 05.614   +02 02 09.18  4.6063 5.2548 125.0 21.7 .814  77
2019 06 17 17  21 03 04.969   +02 02 19.64  4.6058 5.2548 125.0 21.7 .821  77
2019 06 17 18  21 03 04.321   +02 02 30.08  4.6053 5.2548 125.0 21.7 .827  77